Location: Unspecified
(0.0000°N, 0.0000°E)
Time: 21:21:13
(UTC+00:00)

Hubble Space Telescope - Pass Details

Date: 27 March 2023
Orbit: 527 x 530 km, 28.5° (Epoch: 30 March)

Event Time Altitude Azimuth Distance (km) Brightness Sun altitude
Exits shadow 05:12:21 - 318° (NW) 1,793 3.1 -13.3°
Reaches altitude 10° 05:12:28 10° 318° (NW) 1,751 3.0 -13.3°
Maximum altitude 05:16:19 42° 30° (NNE) 746 1.8 -12.3°
Drops below altitude 10° 05:20:10 10° 102° (ESE) 1,754 4.8 -11.3°
Sets 05:22:30 0° 109° (ESE) 2,643 5.8 -10.8°
